Time,TemperatureF,DewpointF,PressureIn,WindDirection,WindDirectionDegrees,WindSpeedMPH,WindSpeedGustMPH,Humidity,HourlyPrecipIn,Conditions,Clouds,dailyrainin,SoftwareType,DateUTC
2013-03-04 00:00:00,27.5,24.0,28.91,West,270,7.0,-999.0,84,0.00,,,0.00,Rainwise IP-100,2013-03-04 05:00:00,
2013-03-04 00:05:00,27.2,24.0,28.91,NW,315,5.0,-999.0,85,0.00,,,0.00,Rainwise IP-100,2013-03-04 05:05:00,
2013-03-04 00:10:00,27.2,24.0,28.91,NNW,337,1.0,-999.0,85,0.00,,,0.00,Rainwise IP-100,2013-03-04 05:10:00,
2013-03-04 00:15:00,27.1,24.0,28.91,West,270,4.0,-999.0,85,0.00,,,0.00,Rainwise IP-100,2013-03-04 05:15:00,
2013-03-04 00:20:00,26.9,23.0,28.91,WNW,292,4.0,-999.0,83,0.00,,,0.00,Rainwise IP-100,2013-03-04 05:20:00,
2013-03-04 00:25:00,26.9,23.0,28.91,WNW,292,4.0,-999.0,83,0.00,,,0.00,Rainwise IP-100,2013-03-04 05:25:00,
2013-03-04 00:30:00,26.8,23.0,28.91,NW,315,9.0,-999.0,83,0.00,,,0.00,Rainwise IP-100,2013-03-04 05:30:00,
2013-03-04 00:36:00,26.8,23.0,28.91,NW,315,5.0,-999.0,82,0.00,,,0.00,Rainwise IP-100,2013-03-04 05:36:00,
2013-03-04 00:41:00,26.8,23.0,28.91,West,270,3.0,-999.0,80,0.00,,,0.00,Rainwise IP-100,2013-03-04 05:41:00,
2013-03-04 00:46:00,26.7,23.0,28.91,NNW,337,5.0,-999.0,81,0.00,,,0.00,Rainwise IP-100,2013-03-04 05:46:00,
2013-03-04 00:51:00,26.5,23.0,28.91,WNW,292,3.0,-999.0,81,0.00,,,0.00,Rainwise IP-100,2013-03-04 05:51:00,
2013-03-04 00:56:00,26.4,21.0,28.91,NNW,337,2.0,-999.0,82,0.00,,,0.00,Rainwise IP-100,2013-03-04 05:56:00,
2013-03-04 01:01:00,26.5,23.0,28.92,NNW,337,4.0,-999.0,81,0.00,,,0.00,Rainwise IP-100,2013-03-04 06:01:00,
2013-03-04 01:06:00,26.5,23.0,28.92,WNW,292,6.0,-999.0,80,0.00,,,0.00,Rainwise IP-100,2013-03-04 06:06:00,
2013-03-04 01:12:00,26.2,21.0,28.93,WNW,292,5.0,-999.0,82,0.00,,,0.00,Rainwise IP-100,2013-03-04 06:12:00,
2013-03-04 01:17:00,25.9,23.0,28.94,WNW,292,7.0,-999.0,83,0.00,,,0.00,Rainwise IP-100,2013-03-04 06:17:00,
2013-03-04 01:22:00,25.9,23.0,28.93,NNW,337,4.0,-999.0,83,0.00,,,0.00,Rainwise IP-100,2013-03-04 06:22:00,
2013-03-04 01:27:00,25.8,23.0,28.93,NW,315,7.0,-999.0,83,0.00,,,0.00,Rainwise IP-100,2013-03-04 06:27:00,
2013-03-04 01:32:00,25.8,23.0,28.93,WNW,292,7.0,-999.0,83,0.00,,,0.00,Rainwise IP-100,2013-03-04 06:32:00,
2013-03-04 01:37:00,25.7,23.0,28.93,WNW,292,4.0,-999.0,83,0.00,,,0.00,Rainwise IP-100,2013-03-04 06:37:00,
2013-03-04 01:42:00,25.5,23.0,28.93,West,270,6.0,-999.0,83,0.00,,,0.00,Rainwise IP-100,2013-03-04 06:42:00,
2013-03-04 01:47:00,25.4,23.0,28.93,North,360,3.0,-999.0,84,0.00,,,0.00,Rainwise IP-100,2013-03-04 06:47:00,
2013-03-04 01:53:00,25.3,23.0,28.92,NW,315,8.0,-999.0,84,0.00,,,0.00,Rainwise IP-100,2013-03-04 06:53:00,
2013-03-04 01:58:00,25.3,23.0,28.93,NW,315,10.0,-999.0,84,0.00,,,0.00,Rainwise IP-100,2013-03-04 06:58:00,
2013-03-04 02:03:00,25.1,23.0,28.92,NNW,337,7.0,-999.0,84,0.00,,,0.00,Rainwise IP-100,2013-03-04 07:03:00,
2013-03-04 02:08:00,25.1,23.0,28.92,WNW,292,6.0,-999.0,83,0.00,,,0.00,Rainwise IP-100,2013-03-04 07:08:00,
2013-03-04 02:13:00,24.9,23.0,28.92,NNW,337,7.0,-999.0,84,0.00,,,0.00,Rainwise IP-100,2013-03-04 07:13:00,
2013-03-04 02:18:00,24.6,23.0,28.92,NNW,337,6.0,-999.0,84,0.00,,,0.00,Rainwise IP-100,2013-03-04 07:18:00,
2013-03-04 02:23:00,24.7,23.0,28.92,NW,315,4.0,-999.0,84,0.00,,,0.00,Rainwise IP-100,2013-03-04 07:23:00,
2013-03-04 02:29:00,24.7,23.0,28.92,NW,315,7.0,-999.0,84,0.00,,,0.00,Rainwise IP-100,2013-03-04 07:29:00,
2013-03-04 02:34:00,24.5,23.0,28.92,WNW,292,7.0,-999.0,84,0.00,,,0.00,Rainwise IP-100,2013-03-04 07:34:00,
2013-03-04 02:39:00,24.4,21.0,28.93,WNW,292,3.0,-999.0,85,0.00,,,0.00,Rainwise IP-100,2013-03-04 07:39:00,
2013-03-04 02:44:00,24.2,21.0,28.93,NNW,337,2.0,-999.0,86,0.00,,,0.00,Rainwise IP-100,2013-03-04 07:44:00,
2013-03-04 02:49:00,24.2,21.0,28.92,West,270,6.0,-999.0,86,0.00,,,0.00,Rainwise IP-100,2013-03-04 07:49:00,
2013-03-04 02:54:00,24.3,21.0,28.93,North,360,6.0,-999.0,84,0.00,,,0.00,Rainwise IP-100,2013-03-04 07:54:00,
2013-03-04 02:59:00,24.2,21.0,28.92,NW,315,7.0,-999.0,84,0.00,,,0.00,Rainwise IP-100,2013-03-04 07:59:00,
2013-03-04 03:04:00,24.2,21.0,28.92,West,270,6.0,-999.0,84,0.00,,,0.00,Rainwise IP-100,2013-03-04 08:04:00,
2013-03-04 03:10:00,24.4,21.0,28.92,WNW,292,2.0,-999.0,84,0.00,,,0.00,Rainwise IP-100,2013-03-04 08:10:00,
2013-03-04 03:15:00,24.3,21.0,28.92,NW,315,9.0,-999.0,83,0.00,,,0.00,Rainwise IP-100,2013-03-04 08:15:00,
2013-03-04 03:20:00,24.2,21.0,28.92,West,270,6.0,-999.0,83,0.00,,,0.00,Rainwise IP-100,2013-03-04 08:20:00,
2013-03-04 03:25:00,23.8,21.0,28.92,NW,315,5.0,-999.0,84,0.00,,,0.00,Rainwise IP-100,2013-03-04 08:25:00,
2013-03-04 03:30:00,23.6,21.0,28.92,WNW,292,0.0,-999.0,84,0.00,,,0.00,Rainwise IP-100,2013-03-04 08:30:00,
2013-03-04 03:35:00,23.4,18.0,28.92,North,360,0.0,-999.0,85,0.00,,,0.00,Rainwise IP-100,2013-03-04 08:35:00,
2013-03-04 03:40:00,23.2,18.0,28.92,NW,315,2.0,-999.0,87,0.00,,,0.00,Rainwise IP-100,2013-03-04 08:40:00,
2013-03-04 03:45:00,23.2,18.0,28.92,West,270,1.0,-999.0,86,0.00,,,0.00,Rainwise IP-100,2013-03-04 08:45:00,
2013-03-04 03:51:00,23.2,18.0,28.92,WNW,292,2.0,-999.0,86,0.00,,,0.00,Rainwise IP-100,2013-03-04 08:51:00,
2013-03-04 03:56:00,23.1,18.0,28.92,West,270,6.0,-999.0,86,0.00,,,0.00,Rainwise IP-100,2013-03-04 08:56:00,
2013-03-04 04:01:00,22.8,18.0,28.92,NW,315,2.0,-999.0,87,0.00,,,0.00,Rainwise IP-100,2013-03-04 09:01:00,
2013-03-04 04:06:00,22.6,18.0,28.93,North,360,2.0,-999.0,87,0.00,,,0.00,Rainwise IP-100,2013-03-04 09:06:00,
2013-03-04 04:11:00,22.4,18.0,28.93,NE,45,2.0,-999.0,87,0.00,,,0.00,Rainwise IP-100,2013-03-04 09:11:00,
2013-03-04 04:16:00,22.4,18.0,28.92,NNW,337,2.0,-999.0,87,0.00,,,0.00,Rainwise IP-100,2013-03-04 09:16:00,
2013-03-04 04:21:00,22.2,18.0,28.93,WNW,292,9.0,-999.0,87,0.00,,,0.00,Rainwise IP-100,2013-03-04 09:21:00,
2013-03-04 04:27:00,22.3,18.0,28.93,WNW,292,2.0,-999.0,87,0.00,,,0.00,Rainwise IP-100,2013-03-04 09:27:00,
2013-03-04 04:32:00,22.3,21.0,28.93,NNW,337,4.0,-999.0,88,0.00,,,0.00,Rainwise IP-100,2013-03-04 09:32:00,
2013-03-04 04:37:00,22.6,18.0,28.93,West,270,7.0,-999.0,86,0.00,,,0.00,Rainwise IP-100,2013-03-04 09:37:00,
2013-03-04 04:42:00,22.9,18.0,28.93,WSW,247,2.0,-999.0,86,0.00,,,0.00,Rainwise IP-100,2013-03-04 09:42:00,
2013-03-04 04:47:00,22.7,18.0,28.93,West,270,0.0,-999.0,85,0.00,,,0.00,Rainwise IP-100,2013-03-04 09:47:00,
2013-03-04 04:52:00,22.8,18.0,28.93,WNW,292,5.0,-999.0,85,0.00,,,0.00,Rainwise IP-100,2013-03-04 09:52:00,
2013-03-04 04:53:00,22.8,18.0,28.93,NW,315,2.0,-999.0,85,0.00,,,0.00,Rainwise IP-100,2013-03-04 09:53:00,
2013-03-04 04:58:00,22.9,18.0,28.93,WNW,292,6.0,-999.0,85,0.00,,,0.00,Rainwise IP-100,2013-03-04 09:58:00,
2013-03-04 05:03:00,22.9,18.0,28.93,West,270,7.0,-999.0,85,0.00,,,0.00,Rainwise IP-100,2013-03-04 10:03:00,
2013-03-04 05:08:00,22.9,18.0,28.93,West,270,7.0,-999.0,84,0.00,,,0.00,Rainwise IP-100,2013-03-04 10:08:00,
2013-03-04 05:13:00,22.9,18.0,28.93,West,270,6.0,-999.0,84,0.00,,,0.00,Rainwise IP-100,2013-03-04 10:13:00,
2013-03-04 05:18:00,22.9,18.0,28.93,WNW,292,1.0,-999.0,84,0.00,,,0.00,Rainwise IP-100,2013-03-04 10:18:00,
2013-03-04 05:24:00,22.6,18.0,28.93,NNW,337,4.0,-999.0,85,0.00,,,0.00,Rainwise IP-100,2013-03-04 10:24:00,
2013-03-04 05:29:00,22.5,18.0,28.93,WNW,292,1.0,-999.0,85,0.00,,,0.00,Rainwise IP-100,2013-03-04 10:29:00,
2013-03-04 05:34:00,22.4,18.0,28.93,NW,315,6.0,-999.0,85,0.00,,,0.00,Rainwise IP-100,2013-03-04 10:34:00,
2013-03-04 05:39:00,22.4,18.0,28.93,NW,315,3.0,-999.0,85,0.00,,,0.00,Rainwise IP-100,2013-03-04 10:39:00,
2013-03-04 05:44:00,22.5,18.0,28.93,WSW,247,3.0,-999.0,86,0.00,,,0.00,Rainwise IP-100,2013-03-04 10:44:00,
2013-03-04 05:49:00,22.3,18.0,28.93,NW,315,7.0,-999.0,85,0.00,,,0.00,Rainwise IP-100,2013-03-04 10:49:00,
2013-03-04 05:54:00,22.3,18.0,28.93,NW,315,4.0,-999.0,85,0.00,,,0.00,Rainwise IP-100,2013-03-04 10:54:00,
2013-03-04 05:59:00,22.3,18.0,28.94,NNW,337,5.0,-999.0,86,0.00,,,0.00,Rainwise IP-100,2013-03-04 10:59:00,
2013-03-04 06:05:00,22.4,18.0,28.94,NNW,337,4.0,-999.0,86,0.00,,,0.00,Rainwise IP-100,2013-03-04 11:05:00,
2013-03-04 06:10:00,22.7,18.0,28.94,NW,315,5.0,-999.0,85,0.00,,,0.00,Rainwise IP-100,2013-03-04 11:10:00,
2013-03-04 06:15:00,22.7,18.0,28.94,WNW,292,7.0,-999.0,85,0.00,,,0.00,Rainwise IP-100,2013-03-04 11:15:00,
2013-03-04 06:20:00,22.4,18.0,28.94,NW,315,2.0,-999.0,86,0.00,,,0.00,Rainwise IP-100,2013-03-04 11:20:00,
2013-03-04 06:25:00,22.8,18.0,28.93,West,270,6.0,-999.0,85,0.00,,,0.00,Rainwise IP-100,2013-03-04 11:25:00,
2013-03-04 06:30:00,22.9,18.0,28.93,NNW,337,10.0,-999.0,84,0.00,,,0.00,Rainwise IP-100,2013-03-04 11:30:00,
2013-03-04 06:35:00,22.9,18.0,28.94,WSW,247,4.0,-999.0,84,0.00,,,0.00,Rainwise IP-100,2013-03-04 11:35:00,
2013-03-04 06:41:00,22.8,18.0,28.94,NW,315,7.0,-999.0,85,0.00,,,0.00,Rainwise IP-100,2013-03-04 11:41:00,
2013-03-04 06:46:00,23.0,18.0,28.94,NNW,337,7.0,-999.0,84,0.00,,,0.00,Rainwise IP-100,2013-03-04 11:46:00,
2013-03-04 06:51:00,23.2,18.0,28.94,NW,315,6.0,-999.0,84,0.00,,,0.00,Rainwise IP-100,2013-03-04 11:51:00,
2013-03-04 06:56:00,23.3,18.0,28.94,NW,315,6.0,-999.0,84,0.00,,,0.00,Rainwise IP-100,2013-03-04 11:56:00,
2013-03-04 07:01:00,23.5,21.0,28.94,NW,315,3.0,-999.0,82,0.00,,,0.00,Rainwise IP-100,2013-03-04 12:01:00,
2013-03-04 07:06:00,23.5,21.0,28.94,WNW,292,7.0,-999.0,82,0.00,,,0.00,Rainwise IP-100,2013-03-04 12:06:00,
2013-03-04 07:11:00,23.8,21.0,28.94,NW,315,9.0,-999.0,81,0.00,,,0.00,Rainwise IP-100,2013-03-04 12:11:00,
2013-03-04 07:16:00,23.9,21.0,28.95,NNE,22,7.0,-999.0,81,0.00,,,0.00,Rainwise IP-100,2013-03-04 12:16:00,
2013-03-04 07:22:00,24.0,21.0,28.95,NW,315,4.0,-999.0,81,0.00,,,0.00,Rainwise IP-100,2013-03-04 12:22:00,
2013-03-04 07:27:00,24.1,21.0,28.95,WNW,292,9.0,-999.0,81,0.00,,,0.00,Rainwise IP-100,2013-03-04 12:27:00,
2013-03-04 07:32:00,24.3,18.0,28.95,WNW,292,6.0,-999.0,80,0.00,,,0.00,Rainwise IP-100,2013-03-04 12:32:00,
2013-03-04 07:37:00,24.5,21.0,28.95,WNW,292,11.0,-999.0,80,0.00,,,0.00,Rainwise IP-100,2013-03-04 12:37:00,
2013-03-04 07:42:00,24.7,21.0,28.94,NNW,337,11.0,-999.0,79,0.00,,,0.00,Rainwise IP-100,2013-03-04 12:42:00,
2013-03-04 07:47:00,25.1,21.0,28.95,West,270,9.0,-999.0,78,0.00,,,0.00,Rainwise IP-100,2013-03-04 12:47:00,
2013-03-04 07:52:00,25.0,21.0,28.94,WNW,292,8.0,-999.0,79,0.00,,,0.00,Rainwise IP-100,2013-03-04 12:52:00,
2013-03-04 07:58:00,25.2,21.0,28.94,West,270,20.0,-999.0,78,0.00,,,0.00,Rainwise IP-100,2013-03-04 12:58:00,
2013-03-04 08:03:00,25.6,21.0,28.94,West,270,6.0,-999.0,78,0.00,,,0.00,Rainwise IP-100,2013-03-04 13:03:00,
2013-03-04 08:08:00,25.7,21.0,28.94,WNW,292,4.0,-999.0,78,0.00,,,0.00,Rainwise IP-100,2013-03-04 13:08:00,
2013-03-04 08:13:00,25.9,21.0,28.94,WNW,292,7.0,-999.0,78,0.00,,,0.00,Rainwise IP-100,2013-03-04 13:13:00,
2013-03-04 08:18:00,25.5,21.0,28.94,WNW,292,13.0,-999.0,78,0.00,,,0.00,Rainwise IP-100,2013-03-04 13:18:00,
2013-03-04 08:23:00,25.7,21.0,28.95,West,270,7.0,-999.0,78,0.00,,,0.00,Rainwise IP-100,2013-03-04 13:23:00,
2013-03-04 08:28:00,25.8,21.0,28.95,WNW,292,10.0,-999.0,77,0.00,,,0.00,Rainwise IP-100,2013-03-04 13:28:00,
2013-03-04 08:33:00,26.2,21.0,28.95,NW,315,18.0,-999.0,77,0.00,,,0.00,Rainwise IP-100,2013-03-04 13:33:00,
2013-03-04 08:39:00,25.9,21.0,28.95,NNW,337,12.0,-999.0,76,0.00,,,0.00,Rainwise IP-100,2013-03-04 13:39:00,
2013-03-04 08:44:00,25.9,21.0,28.95,NW,315,7.0,-999.0,78,0.00,,,0.00,Rainwise IP-100,2013-03-04 13:44:00,
2013-03-04 08:49:00,25.8,21.0,28.95,WNW,292,9.0,-999.0,77,0.00,,,0.00,Rainwise IP-100,2013-03-04 13:49:00,
2013-03-04 08:54:00,25.8,21.0,28.95,NNW,337,6.0,-999.0,77,0.00,,,0.00,Rainwise IP-100,2013-03-04 13:54:00,
2013-03-04 08:59:00,26.1,21.0,28.95,NNE,22,7.0,-999.0,77,0.00,,,0.00,Rainwise IP-100,2013-03-04 13:59:00,
2013-03-04 09:04:00,26.1,21.0,28.95,NW,315,10.0,-999.0,77,0.00,,,0.00,Rainwise IP-100,2013-03-04 14:04:00,
2013-03-04 09:09:00,26.5,21.0,28.94,NW,315,13.0,-999.0,75,0.00,,,0.00,Rainwise IP-100,2013-03-04 14:09:00,
2013-03-04 09:15:00,26.9,21.0,28.94,WNW,292,12.0,-999.0,75,0.00,,,0.00,Rainwise IP-100,2013-03-04 14:15:00,
2013-03-04 09:20:00,27.5,21.0,28.94,WNW,292,10.0,-999.0,72,0.00,,,0.00,Rainwise IP-100,2013-03-04 14:20:00,
2013-03-04 09:25:00,27.5,21.0,28.94,NW,315,5.0,-999.0,73,0.00,,,0.00,Rainwise IP-100,2013-03-04 14:25:00,
2013-03-04 09:30:00,27.3,21.0,28.95,WNW,292,11.0,-999.0,73,0.00,,,0.00,Rainwise IP-100,2013-03-04 14:30:00,
2013-03-04 09:35:00,27.1,21.0,28.94,WNW,292,6.0,-999.0,74,0.00,,,0.00,Rainwise IP-100,2013-03-04 14:35:00,
2013-03-04 09:40:00,26.9,21.0,28.94,WNW,292,9.0,-999.0,73,0.00,,,0.00,Rainwise IP-100,2013-03-04 14:40:00,
2013-03-04 09:45:00,27.1,21.0,28.94,WNW,292,12.0,-999.0,74,0.00,,,0.00,Rainwise IP-100,2013-03-04 14:45:00,
2013-03-04 09:50:00,27.5,21.0,28.94,NNW,337,7.0,-999.0,73,0.00,,,0.00,Rainwise IP-100,2013-03-04 14:50:00,
2013-03-04 09:56:00,27.8,21.0,28.94,NW,315,15.0,-999.0,72,0.00,,,0.00,Rainwise IP-100,2013-03-04 14:56:00,
2013-03-04 10:01:00,27.9,21.0,28.94,NNW,337,5.0,-999.0,72,0.00,,,0.00,Rainwise IP-100,2013-03-04 15:01:00,
2013-03-04 10:06:00,28.3,21.0,28.94,WSW,247,6.0,-999.0,71,0.00,,,0.00,Rainwise IP-100,2013-03-04 15:06:00,
2013-03-04 10:11:00,27.9,21.0,28.94,NW,315,12.0,-999.0,72,0.00,,,0.00,Rainwise IP-100,2013-03-04 15:11:00,
2013-03-04 10:16:00,28.6,21.0,28.94,WNW,292,5.0,-999.0,70,0.00,,,0.00,Rainwise IP-100,2013-03-04 15:16:00,
2013-03-04 10:21:00,29.4,21.0,28.94,NNW,337,8.0,-999.0,70,0.00,,,0.00,Rainwise IP-100,2013-03-04 15:21:00,
2013-03-04 10:26:00,29.9,23.0,28.94,North,360,8.0,-999.0,68,0.00,,,0.00,Rainwise IP-100,2013-03-04 15:26:00,
2013-03-04 10:32:00,29.8,23.0,28.94,NNW,337,12.0,-999.0,69,0.00,,,0.00,Rainwise IP-100,2013-03-04 15:32:00,
2013-03-04 10:37:00,29.5,23.0,28.94,WNW,292,9.0,-999.0,68,0.00,,,0.00,Rainwise IP-100,2013-03-04 15:37:00,
2013-03-04 10:42:00,30.5,23.0,28.94,WNW,292,9.0,-999.0,68,0.00,,,0.00,Rainwise IP-100,2013-03-04 15:42:00,
2013-03-04 10:47:00,31.4,21.0,28.94,WNW,292,12.0,-999.0,64,0.00,,,0.00,Rainwise IP-100,2013-03-04 15:47:00,
2013-03-04 10:52:00,30.2,23.0,28.94,NW,315,10.0,-999.0,68,0.00,,,0.00,Rainwise IP-100,2013-03-04 15:52:00,
2013-03-04 10:57:00,30.2,23.0,28.94,NNW,337,9.0,-999.0,68,0.00,,,0.00,Rainwise IP-100,2013-03-04 15:57:00,
2013-03-04 11:02:00,30.9,21.0,28.94,NW,315,12.0,-999.0,67,0.00,,,0.00,Rainwise IP-100,2013-03-04 16:02:00,
2013-03-04 11:07:00,30.9,21.0,28.94,NNW,337,8.0,-999.0,67,0.00,,,0.00,Rainwise IP-100,2013-03-04 16:07:00,
2013-03-04 11:13:00,31.0,21.0,28.94,NNE,22,7.0,-999.0,66,0.00,,,0.00,Rainwise IP-100,2013-03-04 16:13:00,
2013-03-04 11:18:00,30.9,21.0,28.94,WNW,292,6.0,-999.0,66,0.00,,,0.00,Rainwise IP-100,2013-03-04 16:18:00,
2013-03-04 11:23:00,30.6,23.0,28.94,NW,315,10.0,-999.0,68,0.00,,,0.00,Rainwise IP-100,2013-03-04 16:23:00,
2013-03-04 11:28:00,30.6,23.0,28.94,WNW,292,6.0,-999.0,68,0.00,,,0.00,Rainwise IP-100,2013-03-04 16:28:00,
2013-03-04 11:33:00,30.4,23.0,28.95,NNW,337,7.0,-999.0,68,0.00,,,0.00,Rainwise IP-100,2013-03-04 16:33:00,
2013-03-04 11:38:00,30.8,21.0,28.94,NW,315,3.0,-999.0,67,0.00,,,0.00,Rainwise IP-100,2013-03-04 16:38:00,
2013-03-04 11:43:00,31.2,21.0,28.94,West,270,9.0,-999.0,66,0.00,,,0.00,Rainwise IP-100,2013-03-04 16:43:00,
2013-03-04 11:49:00,31.4,21.0,28.94,WNW,292,6.0,-999.0,67,0.00,,,0.00,Rainwise IP-100,2013-03-04 16:49:00,
2013-03-04 11:54:00,31.3,21.0,28.94,WNW,292,7.0,-999.0,64,0.00,,,0.00,Rainwise IP-100,2013-03-04 16:54:00,
2013-03-04 11:59:00,31.7,23.0,28.94,WNW,292,9.0,-999.0,64,0.00,,,0.00,Rainwise IP-100,2013-03-04 16:59:00,
2013-03-04 12:04:00,31.5,23.0,28.94,NNW,337,9.0,-999.0,66,0.00,,,0.00,Rainwise IP-100,2013-03-04 17:04:00,
2013-03-04 12:09:00,31.3,21.0,28.94,West,270,6.0,-999.0,66,0.00,,,0.00,Rainwise IP-100,2013-03-04 17:09:00,
2013-03-04 12:14:00,31.0,21.0,28.94,NW,315,6.0,-999.0,67,0.00,,,0.00,Rainwise IP-100,2013-03-04 17:14:00,
2013-03-04 12:19:00,30.6,21.0,28.94,WNW,292,11.0,-999.0,67,0.00,,,0.00,Rainwise IP-100,2013-03-04 17:19:00,
2013-03-04 12:24:00,30.6,21.0,28.94,WNW,292,7.0,-999.0,67,0.00,,,0.00,Rainwise IP-100,2013-03-04 17:24:00,
2013-03-04 12:30:00,30.9,21.0,28.94,WNW,292,7.0,-999.0,67,0.00,,,0.00,Rainwise IP-100,2013-03-04 17:30:00,
2013-03-04 12:35:00,31.1,21.0,28.94,WNW,292,8.0,-999.0,67,0.00,,,0.00,Rainwise IP-100,2013-03-04 17:35:00,
2013-03-04 12:40:00,30.8,21.0,28.94,WNW,292,9.0,-999.0,67,0.00,,,0.00,Rainwise IP-100,2013-03-04 17:40:00,
2013-03-04 12:45:00,30.8,21.0,28.93,WNW,292,5.0,-999.0,66,0.00,,,0.00,Rainwise IP-100,2013-03-04 17:45:00,
2013-03-04 12:50:00,31.1,21.0,28.93,NW,315,8.0,-999.0,67,0.00,,,0.00,Rainwise IP-100,2013-03-04 17:50:00,
2013-03-04 12:55:00,31.3,21.0,28.93,NW,315,11.0,-999.0,65,0.00,,,0.00,Rainwise IP-100,2013-03-04 17:55:00,
2013-03-04 13:00:00,31.9,23.0,28.93,NW,315,7.0,-999.0,65,0.00,,,0.00,Rainwise IP-100,2013-03-04 18:00:00,
2013-03-04 13:06:00,32.1,21.0,28.93,West,270,9.0,-999.0,63,0.00,,,0.00,Rainwise IP-100,2013-03-04 18:06:00,
2013-03-04 13:11:00,32.0,23.0,28.93,NW,315,7.0,-999.0,64,0.00,,,0.00,Rainwise IP-100,2013-03-04 18:11:00,
2013-03-04 13:16:00,31.9,23.0,28.93,WNW,292,9.0,-999.0,64,0.00,,,0.00,Rainwise IP-100,2013-03-04 18:16:00,
2013-03-04 13:21:00,32.1,21.0,28.93,NW,315,10.0,-999.0,63,0.00,,,0.00,Rainwise IP-100,2013-03-04 18:21:00,
2013-03-04 13:26:00,32.2,23.0,28.93,NNW,337,10.0,-999.0,64,0.00,,,0.00,Rainwise IP-100,2013-03-04 18:26:00,
2013-03-04 13:29:00,32.5,23.0,28.92,WSW,247,9.0,-999.0,63,0.00,,,0.00,Rainwise IP-100,2013-03-04 18:29:00,
2013-03-04 13:34:00,32.7,23.0,28.93,West,270,10.0,-999.0,62,0.00,,,0.00,Rainwise IP-100,2013-03-04 18:34:00,
2013-03-04 13:39:00,32.8,23.0,28.93,NW,315,13.0,-999.0,62,0.00,,,0.00,Rainwise IP-100,2013-03-04 18:39:00,
2013-03-04 13:45:00,32.9,23.0,28.92,WNW,292,13.0,-999.0,62,0.00,,,0.00,Rainwise IP-100,2013-03-04 18:45:00,
2013-03-04 13:50:00,32.9,23.0,28.93,NW,315,15.0,-999.0,63,0.00,,,0.00,Rainwise IP-100,2013-03-04 18:50:00,
2013-03-04 13:55:00,33.1,23.0,28.93,WNW,292,7.0,-999.0,62,0.00,,,0.00,Rainwise IP-100,2013-03-04 18:55:00,
2013-03-04 14:00:00,32.8,23.0,28.93,WSW,247,7.0,-999.0,62,0.00,,,0.00,Rainwise IP-100,2013-03-04 19:00:00,
2013-03-04 14:05:00,32.7,23.0,28.93,WNW,292,10.0,-999.0,62,0.00,,,0.00,Rainwise IP-100,2013-03-04 19:05:00,
2013-03-04 14:10:00,32.6,23.0,28.92,WNW,292,13.0,-999.0,62,0.00,,,0.00,Rainwise IP-100,2013-03-04 19:10:00,
2013-03-04 14:15:00,32.9,23.0,28.93,WSW,247,7.0,-999.0,64,0.00,,,0.00,Rainwise IP-100,2013-03-04 19:15:00,
2013-03-04 14:21:00,32.9,23.0,28.93,WNW,292,15.0,-999.0,62,0.00,,,0.00,Rainwise IP-100,2013-03-04 19:21:00,
2013-03-04 14:26:00,33.3,23.0,28.93,NW,315,10.0,-999.0,62,0.00,,,0.00,Rainwise IP-100,2013-03-04 19:26:00,
2013-03-04 14:31:00,33.7,23.0,28.93,WNW,292,9.0,-999.0,61,0.00,,,0.00,Rainwise IP-100,2013-03-04 19:31:00,
2013-03-04 14:36:00,33.8,23.0,28.93,West,270,13.0,-999.0,62,0.00,,,0.00,Rainwise IP-100,2013-03-04 19:36:00,
2013-03-04 14:41:00,33.8,23.0,28.93,NW,315,9.0,-999.0,61,0.00,,,0.00,Rainwise IP-100,2013-03-04 19:41:00,
2013-03-04 14:46:00,34.3,23.0,28.93,NW,315,14.0,-999.0,61,0.00,,,0.00,Rainwise IP-100,2013-03-04 19:46:00,
2013-03-04 14:51:00,33.9,23.0,28.93,NW,315,3.0,-999.0,60,0.00,,,0.00,Rainwise IP-100,2013-03-04 19:51:00,
2013-03-04 14:56:00,33.7,23.0,28.93,WNW,292,7.0,-999.0,61,0.00,,,0.00,Rainwise IP-100,2013-03-04 19:56:00,
2013-03-04 15:00:00,33.7,23.0,28.93,WNW,292,10.0,-999.0,61,0.00,,,0.00,Rainwise IP-100,2013-03-04 20:00:00,
2013-03-04 15:06:00,33.7,23.0,28.93,NW,315,7.0,-999.0,61,0.00,,,0.00,Rainwise IP-100,2013-03-04 20:06:00,
2013-03-04 15:11:00,33.8,23.0,28.93,WNW,292,9.0,-999.0,60,0.00,,,0.00,Rainwise IP-100,2013-03-04 20:11:00,
2013-03-04 15:16:00,33.3,23.0,28.93,West,270,9.0,-999.0,61,0.00,,,0.00,Rainwise IP-100,2013-03-04 20:16:00,
2013-03-04 15:21:00,33.1,23.0,28.93,WNW,292,9.0,-999.0,63,0.00,,,0.00,Rainwise IP-100,2013-03-04 20:21:00,
2013-03-04 15:26:00,33.1,23.0,28.93,WNW,292,4.0,-999.0,63,0.00,,,0.00,Rainwise IP-100,2013-03-04 20:26:00,
2013-03-04 15:30:00,33.3,23.0,28.94,NW,315,9.0,-999.0,62,0.00,,,0.00,Rainwise IP-100,2013-03-04 20:30:00,
2013-03-04 15:35:00,32.9,23.0,28.93,WNW,292,9.0,-999.0,63,0.00,,,0.00,Rainwise IP-100,2013-03-04 20:35:00,
2013-03-04 15:40:00,32.9,23.0,28.93,WNW,292,10.0,-999.0,63,0.00,,,0.00,Rainwise IP-100,2013-03-04 20:40:00,
2013-03-04 15:46:00,33.0,23.0,28.93,West,270,9.0,-999.0,65,0.00,,,0.00,Rainwise IP-100,2013-03-04 20:46:00,
2013-03-04 15:51:00,32.7,23.0,28.93,West,270,7.0,-999.0,64,0.00,,,0.00,Rainwise IP-100,2013-03-04 20:51:00,
2013-03-04 15:56:00,32.9,23.0,28.93,West,270,6.0,-999.0,64,0.00,,,0.00,Rainwise IP-100,2013-03-04 20:56:00,
2013-03-04 16:01:00,33.0,23.0,28.94,West,270,5.0,-999.0,64,0.00,,,0.00,Rainwise IP-100,2013-03-04 21:01:00,
2013-03-04 16:06:00,33.0,23.0,28.94,NW,315,8.0,-999.0,64,0.00,,,0.00,Rainwise IP-100,2013-03-04 21:06:00,
2013-03-04 16:11:00,32.9,23.0,28.93,NNW,337,10.0,-999.0,64,0.00,,,0.00,Rainwise IP-100,2013-03-04 21:11:00,
2013-03-04 16:16:00,32.8,23.0,28.94,West,270,7.0,-999.0,64,0.00,,,0.00,Rainwise IP-100,2013-03-04 21:16:00,
2013-03-04 16:22:00,32.8,23.0,28.94,SW,225,7.0,-999.0,64,0.00,,,0.00,Rainwise IP-100,2013-03-04 21:22:00,
2013-03-04 16:27:00,32.8,23.0,28.94,NW,315,10.0,-999.0,64,0.00,,,0.00,Rainwise IP-100,2013-03-04 21:27:00,
2013-03-04 16:32:00,32.7,23.0,28.94,North,360,6.0,-999.0,64,0.00,,,0.00,Rainwise IP-100,2013-03-04 21:32:00,
2013-03-04 16:37:00,32.7,23.0,28.95,NW,315,7.0,-999.0,64,0.00,,,0.00,Rainwise IP-100,2013-03-04 21:37:00,
2013-03-04 16:42:00,32.4,23.0,28.95,NW,315,6.0,-999.0,67,0.00,,,0.00,Rainwise IP-100,2013-03-04 21:42:00,
2013-03-04 16:47:00,31.9,23.0,28.95,West,270,7.0,-999.0,67,0.00,,,0.00,Rainwise IP-100,2013-03-04 21:47:00,
2013-03-04 16:52:00,31.8,23.0,28.95,NW,315,6.0,-999.0,68,0.00,,,0.00,Rainwise IP-100,2013-03-04 21:52:00,
2013-03-04 16:57:00,31.6,23.0,28.95,WNW,292,11.0,-999.0,68,0.00,,,0.00,Rainwise IP-100,2013-03-04 21:57:00,
2013-03-04 17:03:00,31.5,23.0,28.96,WNW,292,3.0,-999.0,69,0.00,,,0.00,Rainwise IP-100,2013-03-04 22:03:00,
2013-03-04 17:08:00,31.4,23.0,28.96,WNW,292,9.0,-999.0,70,0.00,,,0.00,Rainwise IP-100,2013-03-04 22:08:00,
2013-03-04 17:13:00,31.2,23.0,28.96,WNW,292,8.0,-999.0,71,0.00,,,0.00,Rainwise IP-100,2013-03-04 22:13:00,
2013-03-04 17:18:00,31.1,23.0,28.97,NNW,337,8.0,-999.0,72,0.00,,,0.00,Rainwise IP-100,2013-03-04 22:18:00,
2013-03-04 17:23:00,31.1,23.0,28.97,NNW,337,7.0,-999.0,70,0.00,,,0.00,Rainwise IP-100,2013-03-04 22:23:00,
2013-03-04 17:28:00,30.9,23.0,28.97,WNW,292,10.0,-999.0,71,0.00,,,0.00,Rainwise IP-100,2013-03-04 22:28:00,
2013-03-04 17:33:00,30.9,23.0,28.97,NW,315,9.0,-999.0,70,0.00,,,0.00,Rainwise IP-100,2013-03-04 22:33:00,
2013-03-04 17:38:00,31.1,23.0,28.97,North,360,7.0,-999.0,70,0.00,,,0.00,Rainwise IP-100,2013-03-04 22:38:00,
2013-03-04 17:44:00,31.0,23.0,28.97,West,270,6.0,-999.0,70,0.00,,,0.00,Rainwise IP-100,2013-03-04 22:44:00,
2013-03-04 17:49:00,30.9,23.0,28.97,NW,315,13.0,-999.0,70,0.00,,,0.00,Rainwise IP-100,2013-03-04 22:49:00,
2013-03-04 17:54:00,30.7,23.0,28.98,WNW,292,13.0,-999.0,70,0.00,,,0.00,Rainwise IP-100,2013-03-04 22:54:00,
2013-03-04 17:59:00,30.7,23.0,28.98,NW,315,6.0,-999.0,70,0.00,,,0.00,Rainwise IP-100,2013-03-04 22:59:00,
2013-03-04 18:04:00,30.6,23.0,28.98,WNW,292,10.0,-999.0,70,0.00,,,0.00,Rainwise IP-100,2013-03-04 23:04:00,
2013-03-04 18:09:00,30.5,23.0,28.99,NW,315,10.0,-999.0,71,0.00,,,0.00,Rainwise IP-100,2013-03-04 23:09:00,
2013-03-04 18:14:00,30.4,23.0,28.99,NW,315,7.0,-999.0,72,0.00,,,0.00,Rainwise IP-100,2013-03-04 23:14:00,
2013-03-04 18:20:00,30.4,23.0,28.99,WNW,292,6.0,-999.0,72,0.00,,,0.00,Rainwise IP-100,2013-03-04 23:20:00,
2013-03-04 18:25:00,30.3,23.0,29.00,NNE,22,8.0,-999.0,73,0.00,,,0.00,Rainwise IP-100,2013-03-04 23:25:00,
2013-03-04 18:30:00,30.4,23.0,29.00,WNW,292,12.0,-999.0,72,0.00,,,0.00,Rainwise IP-100,2013-03-04 23:30:00,
2013-03-04 18:35:00,30.4,23.0,29.01,North,360,7.0,-999.0,73,0.00,,,0.00,Rainwise IP-100,2013-03-04 23:35:00,
2013-03-04 18:40:00,30.4,23.0,29.01,NW,315,2.0,-999.0,72,0.00,,,0.00,Rainwise IP-100,2013-03-04 23:40:00,
2013-03-04 18:45:00,30.3,23.0,29.01,NNW,337,3.0,-999.0,72,0.00,,,0.00,Rainwise IP-100,2013-03-04 23:45:00,
2013-03-04 18:50:00,30.4,23.0,29.01,North,360,2.0,-999.0,73,0.00,,,0.00,Rainwise IP-100,2013-03-04 23:50:00,
2013-03-04 18:55:00,30.3,23.0,29.01,WNW,292,6.0,-999.0,73,0.00,,,0.00,Rainwise IP-100,2013-03-04 23:55:00,
2013-03-04 19:01:00,30.2,23.0,29.02,WNW,292,5.0,-999.0,73,0.00,,,0.00,Rainwise IP-100,2013-03-05 00:01:00,
2013-03-04 19:06:00,29.9,24.0,29.02,NW,315,2.0,-999.0,74,0.00,,,0.00,Rainwise IP-100,2013-03-05 00:06:00,
2013-03-04 19:11:00,29.9,23.0,29.02,North,360,4.0,-999.0,73,0.00,,,0.00,Rainwise IP-100,2013-03-05 00:11:00,
2013-03-04 19:16:00,29.9,24.0,29.02,NNE,22,6.0,-999.0,74,0.00,,,0.00,Rainwise IP-100,2013-03-05 00:16:00,
2013-03-04 19:21:00,29.8,24.0,29.02,NNW,337,0.0,-999.0,74,0.00,,,0.00,Rainwise IP-100,2013-03-05 00:21:00,
2013-03-04 19:26:00,29.7,23.0,29.03,North,360,3.0,-999.0,73,0.00,,,0.00,Rainwise IP-100,2013-03-05 00:26:00,
2013-03-04 19:31:00,29.5,24.0,29.03,WNW,292,7.0,-999.0,75,0.00,,,0.00,Rainwise IP-100,2013-03-05 00:31:00,
2013-03-04 19:37:00,29.4,23.0,29.03,NNW,337,5.0,-999.0,74,0.00,,,0.00,Rainwise IP-100,2013-03-05 00:37:00,
2013-03-04 19:42:00,29.3,23.0,29.03,NW,315,3.0,-999.0,75,0.00,,,0.00,Rainwise IP-100,2013-03-05 00:42:00,
2013-03-04 19:47:00,29.0,23.0,29.03,WNW,292,5.0,-999.0,77,0.00,,,0.00,Rainwise IP-100,2013-03-05 00:47:00,
2013-03-04 19:52:00,28.9,23.0,29.03,North,360,6.0,-999.0,77,0.00,,,0.00,Rainwise IP-100,2013-03-05 00:52:00,
2013-03-04 19:57:00,28.7,23.0,29.03,ENE,67,5.0,-999.0,77,0.00,,,0.00,Rainwise IP-100,2013-03-05 00:57:00,
2013-03-04 20:02:00,28.7,23.0,29.03,NW,315,8.0,-999.0,78,0.00,,,0.00,Rainwise IP-100,2013-03-05 01:02:00,
2013-03-04 20:07:00,28.6,23.0,29.04,WNW,292,7.0,-999.0,78,0.00,,,0.00,Rainwise IP-100,2013-03-05 01:07:00,
2013-03-04 20:12:00,28.5,23.0,29.04,North,360,2.0,-999.0,78,0.00,,,0.00,Rainwise IP-100,2013-03-05 01:12:00,
2013-03-04 20:17:00,28.2,23.0,29.04,North,360,8.0,-999.0,79,0.00,,,0.00,Rainwise IP-100,2013-03-05 01:17:00,
2013-03-04 20:22:00,28.1,23.0,29.04,NW,315,4.0,-999.0,79,0.00,,,0.00,Rainwise IP-100,2013-03-05 01:22:00,
2013-03-04 20:28:00,28.0,23.0,29.04,NNW,337,7.0,-999.0,79,0.00,,,0.00,Rainwise IP-100,2013-03-05 01:28:00,
2013-03-04 20:33:00,27.9,23.0,29.04,NNE,22,7.0,-999.0,80,0.00,,,0.00,Rainwise IP-100,2013-03-05 01:33:00,
2013-03-04 20:38:00,27.9,23.0,29.04,NW,315,6.0,-999.0,78,0.00,,,0.00,Rainwise IP-100,2013-03-05 01:38:00,
2013-03-04 20:43:00,27.9,23.0,29.04,NNW,337,9.0,-999.0,78,0.00,,,0.00,Rainwise IP-100,2013-03-05 01:43:00,
2013-03-04 20:48:00,27.9,23.0,29.05,NNW,337,8.0,-999.0,77,0.00,,,0.00,Rainwise IP-100,2013-03-05 01:48:00,
2013-03-04 20:53:00,27.8,23.0,29.05,NW,315,6.0,-999.0,78,0.00,,,0.00,Rainwise IP-100,2013-03-05 01:53:00,
2013-03-04 20:58:00,27.8,23.0,29.05,NNW,337,8.0,-999.0,78,0.00,,,0.00,Rainwise IP-100,2013-03-05 01:58:00,
2013-03-04 21:04:00,27.7,23.0,29.05,NW,315,5.0,-999.0,77,0.00,,,0.00,Rainwise IP-100,2013-03-05 02:04:00,
2013-03-04 21:09:00,27.9,23.0,29.05,WNW,292,9.0,-999.0,77,0.00,,,0.00,Rainwise IP-100,2013-03-05 02:09:00,
2013-03-04 21:14:00,27.9,23.0,29.05,NNW,337,4.0,-999.0,77,0.00,,,0.00,Rainwise IP-100,2013-03-05 02:14:00,
2013-03-04 21:19:00,27.8,23.0,29.05,WNW,292,9.0,-999.0,77,0.00,,,0.00,Rainwise IP-100,2013-03-05 02:19:00,
2013-03-04 21:24:00,27.6,23.0,29.05,NW,315,7.0,-999.0,78,0.00,,,0.00,Rainwise IP-100,2013-03-05 02:24:00,
2013-03-04 21:29:00,27.5,23.0,29.05,NW,315,7.0,-999.0,80,0.00,,,0.00,Rainwise IP-100,2013-03-05 02:29:00,
2013-03-04 21:34:00,27.2,23.0,29.05,WNW,292,9.0,-999.0,80,0.00,,,0.00,Rainwise IP-100,2013-03-05 02:34:00,
2013-03-04 21:39:00,26.9,23.0,29.05,NNE,22,6.0,-999.0,80,0.00,,,0.00,Rainwise IP-100,2013-03-05 02:39:00,
2013-03-04 21:45:00,26.8,23.0,29.05,West,270,8.0,-999.0,80,0.00,,,0.00,Rainwise IP-100,2013-03-05 02:45:00,
2013-03-04 21:50:00,26.7,23.0,29.05,WNW,292,9.0,-999.0,80,0.00,,,0.00,Rainwise IP-100,2013-03-05 02:50:00,
2013-03-04 21:55:00,26.7,23.0,29.06,WSW,247,6.0,-999.0,80,0.00,,,0.00,Rainwise IP-100,2013-03-05 02:55:00,
2013-03-04 22:00:00,26.6,23.0,29.06,WNW,292,7.0,-999.0,80,0.00,,,0.00,Rainwise IP-100,2013-03-05 03:00:00,
2013-03-04 22:05:00,26.5,23.0,29.06,NNW,337,9.0,-999.0,80,0.00,,,0.00,Rainwise IP-100,2013-03-05 03:05:00,
2013-03-04 22:10:00,26.5,23.0,29.06,West,270,0.0,-999.0,80,0.00,,,0.00,Rainwise IP-100,2013-03-05 03:10:00,
2013-03-04 22:15:00,26.7,23.0,29.06,NNW,337,6.0,-999.0,79,0.00,,,0.00,Rainwise IP-100,2013-03-05 03:15:00,
2013-03-04 22:21:00,26.7,23.0,29.06,WNW,292,5.0,-999.0,80,0.00,,,0.00,Rainwise IP-100,2013-03-05 03:21:00,
2013-03-04 22:26:00,26.7,23.0,29.06,NNW,337,6.0,-999.0,79,0.00,,,0.00,Rainwise IP-100,2013-03-05 03:26:00,
2013-03-04 22:31:00,26.5,23.0,29.06,NNE,22,4.0,-999.0,78,0.00,,,0.00,Rainwise IP-100,2013-03-05 03:31:00,
2013-03-04 22:36:00,26.5,23.0,29.06,North,360,5.0,-999.0,79,0.00,,,0.00,Rainwise IP-100,2013-03-05 03:36:00,
2013-03-04 22:41:00,26.4,21.0,29.07,NNW,337,6.0,-999.0,80,0.00,,,0.00,Rainwise IP-100,2013-03-05 03:41:00,
2013-03-04 22:46:00,26.4,21.0,29.06,NW,315,5.0,-999.0,81,0.00,,,0.00,Rainwise IP-100,2013-03-05 03:46:00,
2013-03-04 22:51:00,26.4,21.0,29.07,NE,45,2.0,-999.0,81,0.00,,,0.00,Rainwise IP-100,2013-03-05 03:51:00,
2013-03-04 22:56:00,26.4,21.0,29.07,West,270,8.0,-999.0,81,0.00,,,0.00,Rainwise IP-100,2013-03-05 03:56:00,
2013-03-04 23:02:00,26.5,23.0,29.07,North,360,6.0,-999.0,79,0.00,,,0.00,Rainwise IP-100,2013-03-05 04:02:00,
2013-03-04 23:07:00,26.5,23.0,29.07,NW,315,9.0,-999.0,80,0.00,,,0.00,Rainwise IP-100,2013-03-05 04:07:00,
2013-03-04 23:12:00,26.7,23.0,29.08,NW,315,7.0,-999.0,79,0.00,,,0.00,Rainwise IP-100,2013-03-05 04:12:00,
2013-03-04 23:17:00,26.7,23.0,29.07,NW,315,7.0,-999.0,78,0.00,,,0.00,Rainwise IP-100,2013-03-05 04:17:00,
2013-03-04 23:22:00,26.9,23.0,29.07,NNW,337,9.0,-999.0,78,0.00,,,0.00,Rainwise IP-100,2013-03-05 04:22:00,
2013-03-04 23:27:00,26.8,23.0,29.08,NW,315,6.0,-999.0,78,0.00,,,0.00,Rainwise IP-100,2013-03-05 04:27:00,
2013-03-04 23:32:00,26.8,23.0,29.08,North,360,4.0,-999.0,78,0.00,,,0.00,Rainwise IP-100,2013-03-05 04:32:00,
2013-03-04 23:38:00,26.5,23.0,29.08,North,360,2.0,-999.0,79,0.00,,,0.00,Rainwise IP-100,2013-03-05 04:38:00,
2013-03-04 23:43:00,26.4,21.0,29.07,WNW,292,6.0,-999.0,80,0.00,,,0.00,Rainwise IP-100,2013-03-05 04:43:00,
2013-03-04 23:48:00,26.4,21.0,29.08,West,270,8.0,-999.0,80,0.00,,,0.00,Rainwise IP-100,2013-03-05 04:48:00,
2013-03-04 23:53:00,26.3,21.0,29.08,WNW,292,7.0,-999.0,81,0.00,,,0.00,Rainwise IP-100,2013-03-05 04:53:00,
2013-03-04 23:58:00,26.4,21.0,29.08,NW,315,6.0,-999.0,81,0.00,,,0.00,Rainwise IP-100,2013-03-05 04:58:00,